TimeEDT,TemperatureF,Dew PointF,Humidity,Sea Level PressureIn,VisibilityMPH,Wind Direction,Wind SpeedMPH,Gust SpeedMPH,PrecipitationIn,Events,Conditions,WindDirDegrees,DateUTC
12:53 AM,63.0,59.0,87,29.81,10.0,SSW,6.9,-,0.00,,Scattered Clouds,210,2013-05-16 04:53:00
1:53 AM,63.0,60.1,90,29.83,10.0,Calm,Calm,-,N/A,,Overcast,0,2013-05-16 05:53:00
2:53 AM,63.0,61.0,93,29.82,8.0,SW,5.8,-,0.08,,Overcast,220,2013-05-16 06:53:00
3:53 AM,63.0,60.1,90,29.83,8.0,NW,5.8,-,N/A,,Mostly Cloudy,310,2013-05-16 07:53:00
4:53 AM,61.0,55.9,83,29.83,10.0,NW,4.6,-,N/A,,Partly Cloudy,320,2013-05-16 08:53:00
5:53 AM,59.0,55.0,87,29.84,10.0,Calm,Calm,-,N/A,,Clear,0,2013-05-16 09:53:00
6:53 AM,59.0,54.0,83,29.88,10.0,West,3.5,-,N/A,,Partly Cloudy,260,2013-05-16 10:53:00
7:53 AM,61.0,55.9,83,29.89,8.0,Calm,Calm,-,N/A,,Clear,0,2013-05-16 11:53:00
8:53 AM,64.9,52.0,63,29.90,10.0,NW,4.6,-,N/A,,Clear,310,2013-05-16 12:53:00
9:53 AM,68.0,50.0,52,29.92,10.0,NNE,3.5,-,N/A,,Clear,30,2013-05-16 13:53:00
10:53 AM,71.1,51.1,49,29.93,10.0,Calm,Calm,-,N/A,,Clear,0,2013-05-16 14:53:00
11:53 AM,73.0,44.1,35,29.94,10.0,North,3.5,-,N/A,,Clear,360,2013-05-16 15:53:00
12:53 PM,73.9,48.0,40,29.94,10.0,Variable,4.6,-,N/A,,Clear,0,2013-05-16 16:53:00
1:53 PM,73.9,45.0,35,29.93,10.0,Calm,Calm,-,N/A,,Clear,0,2013-05-16 17:53:00
2:53 PM,75.9,44.1,32,29.92,10.0,Calm,Calm,-,N/A,,Clear,0,2013-05-16 18:53:00
3:53 PM,78.1,39.0,25,29.93,10.0,Calm,Calm,-,N/A,,Clear,0,2013-05-16 19:53:00
4:53 PM,77.0,43.0,30,29.93,10.0,South,4.6,-,N/A,,Clear,190,2013-05-16 20:53:00
5:53 PM,77.0,43.0,30,29.93,10.0,SW,4.6,-,N/A,,Clear,220,2013-05-16 21:53:00
6:53 PM,75.9,44.1,32,29.92,10.0,SW,8.1,-,N/A,,Clear,230,2013-05-16 22:53:00
7:53 PM,75.0,51.1,43,29.94,10.0,WSW,3.5,-,N/A,,Partly Cloudy,240,2013-05-16 23:53:00
8:53 PM,68.0,54.0,61,29.95,10.0,SSW,4.6,-,N/A,,Clear,210,2013-05-17 00:53:00
9:53 PM,64.9,54.0,68,29.96,10.0,South,3.5,-,N/A,,Clear,190,2013-05-17 01:53:00
10:53 PM,59.0,52.0,78,29.97,10.0,SSW,5.8,-,N/A,,Clear,200,2013-05-17 02:53:00
11:53 PM,57.9,52.0,81,29.98,10.0,Variable,3.5,-,N/A,,Clear,0,2013-05-17 03:53:00